TimeEST,TemperatureF,Dew PointF,Humidity,Sea Level PressureIn,VisibilityMPH,Wind Direction,Wind SpeedMPH,Gust SpeedMPH,PrecipitationIn,Events,Conditions,WindDirDegrees,DateUTC
12:53 AM,28.9,15.1,56,30.19,10.0,NNW,4.6,-,N/A,,Clear,330,2012-11-06 05:53:00
1:53 AM,24.1,17.1,75,30.20,10.0,Calm,Calm,-,N/A,,Clear,0,2012-11-06 06:53:00
2:53 AM,21.0,17.1,85,30.21,10.0,Calm,Calm,-,N/A,,Clear,0,2012-11-06 07:53:00
3:53 AM,21.0,16.0,81,30.21,10.0,WSW,3.5,-,N/A,,Partly Cloudy,250,2012-11-06 08:53:00
4:53 AM,21.0,16.0,81,30.22,10.0,Calm,Calm,-,N/A,,Clear,0,2012-11-06 09:53:00
5:53 AM,19.0,17.1,92,30.23,10.0,Calm,Calm,-,N/A,,Clear,0,2012-11-06 10:53:00
6:53 AM,19.4,15.8,86,30.21,10.0,Calm,Calm,-,N/A,,Clear,0,2012-11-06 11:53:00
7:53 AM,27.0,21.0,78,30.25,10.0,Calm,Calm,-,N/A,,Clear,0,2012-11-06 12:53:00
8:53 AM,30.0,21.0,69,30.26,10.0,Calm,Calm,-,N/A,,Clear,0,2012-11-06 13:53:00
9:53 AM,32.0,17.1,54,30.27,10.0,East,3.5,-,N/A,,Clear,80,2012-11-06 14:53:00
10:53 AM,33.1,15.1,48,30.27,10.0,SSE,4.6,-,N/A,,Clear,150,2012-11-06 15:53:00
11:53 AM,35.1,16.0,46,30.25,10.0,NE,5.8,-,N/A,,Clear,40,2012-11-06 16:53:00
12:53 PM,36.0,14.0,41,30.23,10.0,Calm,Calm,-,N/A,,Clear,0,2012-11-06 17:53:00
1:53 PM,37.0,14.0,39,30.22,10.0,East,3.5,-,N/A,,Clear,90,2012-11-06 18:53:00
2:53 PM,37.0,12.9,37,30.22,10.0,SSE,4.6,-,N/A,,Clear,150,2012-11-06 19:53:00
3:53 PM,37.0,12.9,37,30.21,10.0,Calm,Calm,-,N/A,,Clear,0,2012-11-06 20:53:00
4:53 PM,28.9,17.1,61,30.22,10.0,Calm,Calm,-,N/A,,Clear,0,2012-11-06 21:53:00
5:53 PM,27.0,18.0,69,30.22,10.0,Calm,Calm,-,N/A,,Clear,0,2012-11-06 22:53:00
6:53 PM,24.1,19.0,81,30.22,10.0,Calm,Calm,-,N/A,,Clear,0,2012-11-06 23:53:00
7:53 PM,23.0,17.1,78,30.22,10.0,Calm,Calm,-,N/A,,Clear,0,2012-11-07 00:53:00
8:53 PM,23.0,17.1,78,30.22,10.0,Calm,Calm,-,N/A,,Clear,0,2012-11-07 01:53:00
9:53 PM,19.9,17.1,89,30.21,10.0,Calm,Calm,-,N/A,,Clear,0,2012-11-07 02:53:00
10:53 PM,19.0,17.1,92,30.19,10.0,Calm,Calm,-,N/A,,Clear,0,2012-11-07 03:53:00
11:53 PM,23.0,18.0,81,30.18,10.0,Calm,Calm,-,N/A,,Clear,0,2012-11-07 04:53:00